Flag for Germany Weather past 2 weeks in Berlin, Berlin, Germany

Now
53 °F

Cool.


Feels Like: 52 °F
Forecast: 41 / 49 °F
Wind: 5 mph from Southwest

Location: Berlin-Tempelhof


UV Index: 0 (Low)

Visibility: N/A


Pressure: 30.30 "Hg

Humidity: 40%

Dew point: 29 °F

Location of BerlinLocation

Historic Weather in Berlin

°F

Berlin temperature yesterday

Maximum temperature yesterday: 54 °F (at 7:00 PM)
Minimum temperature yesterday: 35 °F (at 7:00 AM)
Average temperature yesterday: 46 °F

Past Weeks' High & Low Weather Summary

 TemperatureHumidityPressure
High69 °F (Apr 3, 4:00 PM)96% (Apr 12, 5:00 AM)30.45 "Hg (Apr 12, 5:00 AM)
Low35 °F (Apr 16, 7:00 AM)30% (Apr 16, 7:00 PM)29.65 "Hg (Apr 3, 6:00 AM)
Average51 °F69%29.98 "Hg
* Reported Apr 2 11:00 AM — Apr 17 11:00 AM, Berlin, Weather by CustomWeather, © 2014

Note: Actual official high and low records may vary slightly from our data, if they occured in-between our weather recording intervals... More about our weather records

Advertising

Historic Weather Conditions — Data for Previous 24 hours

 ConditionsComfort  
Time TempWeatherWind HumidityBarometerVisibility
11:00 AM
Apr 17
53 °FCool.5 mph40%30.30 "HgN/A
10:00 AM49 °FCool.3 mph47%30.32 "HgN/A
9:00 AM46 °FCool.2 mph51%30.32 "HgN/A
8:00 AM41 °FQuite cool.1 mph67%30.33 "HgN/A
7:00 AM37 °FChilly.1 mph77%30.34 "HgN/A
6:00 AM36 °FChilly.2 mph78%30.34 "HgN/A
5:00 AM37 °FChilly.2 mph76%30.35 "HgN/A
4:00 AM37 °FChilly.1 mph76%30.37 "HgN/A
3:00 AM38 °FChilly.1 mph70%30.38 "HgN/A
2:00 AM39 °FChilly.1 mph70%30.39 "HgN/A
1:00 AM40 °FChilly.1 mph67%30.40 "HgN/A
12:00 AM44 °FQuite cool.2 mph58%30.40 "HgN/A
11:00 PM
Apr 16
42 °FQuite cool.1 mph63%30.40 "HgN/A
10:00 PM48 °FCool.2 mph46%30.40 "HgN/A
9:00 PM49 °FCool.2 mph40%30.41 "HgN/A
8:00 PM52 °FCool.2 mph34%30.40 "HgN/A
7:00 PM54 °FCool.2 mph30%30.39 "HgN/A
6:00 PM52 °FCool.1 mph38%30.40 "HgN/A
5:00 PM53 °FCool.3 mph45%30.41 "HgN/A
4:00 PM53 °FCool.2 mph32%30.42 "HgN/A
3:00 PM53 °FCool.2 mph40%30.43 "HgN/A
2:00 PM53 °FCool.3 mph37%30.43 "HgN/A
1:00 PM52 °FCool.2 mph33%30.44 "HgN/A
12:00 PM52 °FCool.2 mph41%30.44 "HgN/A
11:00 AM48 °FCool.2 mph50%30.45 "HgN/A
Weather by CustomWeather, © 2014

See weather overview